Location: La Tine
(46.4708°N, 7.0525°E)
Time: 00:23:43
(UTC+00:00)

ATLAS 3B R/B - Pass Details

Date: 18 September 2020
Orbit: 1016 x 1179 km, 63.8° (Epoch: 28 October)

Event Time Altitude Azimuth Distance (km) Brightness Sun altitude
Rises 21:22:00 0° 320° (NW) 3,833 6.6 -34.9°
Reaches altitude 10° 21:24:35 10° 321° (NW) 2,896 5.8 -35.2°
Enters shadow 21:30:03 60° 315° (NW) 1,233 3.1 -35.8°
